Location: Unspecified
(0.0000°N, 0.0000°E)
Time: 14:52:20
(UTC+00:00)

DMSP B5D2-3 - Pass Details

Date: 05 June 2023
Orbit: 819 x 838 km, 98.7° (Epoch: 21 September)

Event Time Altitude Azimuth Distance (km) Brightness Sun altitude
Rises 18:15:26 0° 360° (N) 3,339 8.6 -3.9°
Reaches altitude 10° 18:17:52 10° 353° (N) 2,412 8.0 -4.5°
Maximum altitude 18:22:54 43° 283° (WNW) 1,136 6.6 -5.6°
Drops below altitude 10° 18:28:00 10° 212° (SSW) 2,434 7.7 -6.8°
Sets 18:30:28 0° 205° (SSW) 3,372 8.4 -7.4°
